TimeCST,TemperatureF,Dew PointF,Humidity,Sea Level PressureIn,VisibilityMPH,Wind Direction,Wind SpeedMPH,Gust SpeedMPH,PrecipitationIn,Events,Conditions,WindDirDegrees,DateUTC
12:15 AM,43.3,40.1,88,29.98,10.0,South,4.6,-,N/A,,Clear,190,2013-12-29 06:15:00
12:35 AM,43.3,40.1,88,29.98,10.0,South,4.6,-,N/A,,Clear,190,2013-12-29 06:35:00
12:55 AM,43.0,39.7,88,29.98,10.0,South,4.6,-,N/A,,Clear,190,2013-12-29 06:55:00
1:15 AM,42.8,39.6,88,29.98,10.0,South,4.6,-,N/A,,Clear,190,2013-12-29 07:15:00
1:35 AM,41.9,39.2,90,29.96,7.0,South,3.5,-,N/A,,Clear,170,2013-12-29 07:35:00
1:55 AM,42.3,39.9,91,29.96,7.0,South,3.5,-,N/A,,Clear,190,2013-12-29 07:55:00
2:15 AM,42.4,40.1,91,29.97,7.0,Calm,Calm,-,N/A,,Clear,0,2013-12-29 08:15:00
2:35 AM,41.5,39.2,91,29.95,4.0,Calm,Calm,-,N/A,,Clear,0,2013-12-29 08:35:00
2:55 AM,41.4,39.2,92,29.95,3.0,Calm,Calm,-,N/A,,Clear,0,2013-12-29 08:55:00
3:15 AM,41.0,39.2,93,29.95,1.5,South,3.5,-,N/A,,Unknown,190,2013-12-29 09:15:00
3:35 AM,40.1,38.3,93,29.95,0.5,South,4.6,-,N/A,,Unknown,180,2013-12-29 09:35:00
3:55 AM,41.2,39.4,93,29.97,1.8,South,3.5,-,N/A,,Overcast,180,2013-12-29 09:55:00
4:15 AM,42.1,40.3,93,29.95,5.0,SSE,3.5,-,N/A,,Overcast,150,2013-12-29 10:15:00
4:35 AM,43.0,41.2,93,29.96,10.0,Calm,Calm,-,N/A,,Overcast,0,2013-12-29 10:35:00
4:55 AM,43.2,41.4,93,29.96,10.0,SSW,4.6,-,N/A,,Overcast,210,2013-12-29 10:55:00
5:15 AM,43.7,41.7,93,29.95,10.0,SW,6.9,-,N/A,,Scattered Clouds,230,2013-12-29 11:15:00
5:35 AM,45.3,43.3,93,29.96,10.0,SW,6.9,-,N/A,,Clear,220,2013-12-29 11:35:00
5:55 AM,45.0,42.6,91,29.96,10.0,SW,5.8,-,N/A,,Clear,230,2013-12-29 11:55:00
6:15 AM,45.0,42.4,91,29.97,10.0,WSW,3.5,-,N/A,,Clear,240,2013-12-29 12:15:00
6:35 AM,45.5,42.4,89,29.98,10.0,SW,4.6,-,N/A,,Clear,230,2013-12-29 12:35:00
6:55 AM,45.1,42.1,89,29.99,10.0,Calm,Calm,-,N/A,,Clear,0,2013-12-29 12:55:00
7:15 AM,45.0,41.9,89,30.00,10.0,WSW,3.5,-,N/A,,Clear,240,2013-12-29 13:15:00
7:35 AM,45.9,42.8,89,30.01,10.0,WSW,6.9,-,N/A,,Clear,250,2013-12-29 13:35:00
7:55 AM,46.4,43.0,88,30.03,10.0,West,5.8,-,N/A,,Mostly Cloudy,270,2013-12-29 13:55:00
8:15 AM,47.1,43.5,87,30.05,10.0,NW,4.6,-,N/A,,Mostly Cloudy,310,2013-12-29 14:15:00
8:35 AM,47.7,43.9,87,30.08,10.0,NNW,9.2,-,N/A,,Overcast,330,2013-12-29 14:35:00
8:55 AM,48.2,44.1,86,30.09,10.0,NW,6.9,-,N/A,,Overcast,320,2013-12-29 14:55:00
9:15 AM,47.8,43.7,86,30.09,10.0,NW,6.9,-,N/A,,Overcast,320,2013-12-29 15:15:00
9:35 AM,48.4,44.1,85,30.10,10.0,NW,5.8,-,N/A,,Overcast,320,2013-12-29 15:35:00
9:55 AM,48.2,43.7,84,30.11,10.0,NNW,6.9,-,N/A,,Overcast,330,2013-12-29 15:55:00
10:15 AM,47.7,43.7,86,30.12,4.0,NNW,6.9,-,N/A,,Overcast,340,2013-12-29 16:15:00
10:35 AM,47.1,43.7,88,30.12,3.0,NNW,6.9,-,N/A,,Overcast,340,2013-12-29 16:35:00
10:55 AM,46.6,43.5,89,30.13,4.0,NNW,6.9,-,N/A,,Overcast,330,2013-12-29 16:55:00
11:15 AM,46.9,43.9,89,30.13,4.0,North,3.5,-,N/A,,Overcast,350,2013-12-29 17:15:00
11:35 AM,46.9,43.7,88,30.13,4.0,NNW,10.4,-,N/A,,Overcast,340,2013-12-29 17:35:00
11:55 AM,46.0,42.8,88,30.14,3.0,North,12.7,18.4,N/A,,Overcast,360,2013-12-29 17:55:00
12:15 PM,42.3,39.2,89,30.14,2.0,North,16.1,23.0,N/A,,Overcast,350,2013-12-29 18:15:00
12:35 PM,38.5,36.0,91,30.14,2.0,NNW,23.0,27.6,N/A,,Overcast,340,2013-12-29 18:35:00
12:55 PM,37.0,34.9,92,30.14,2.5,NNW,19.6,25.3,N/A,,Overcast,330,2013-12-29 18:55:00
1:15 PM,35.1,32.9,92,30.15,2.5,NNW,15.0,24.2,N/A,,Overcast,340,2013-12-29 19:15:00
1:35 PM,34.7,32.7,92,30.15,2.5,NNW,17.3,20.7,N/A,,Overcast,330,2013-12-29 19:35:00
1:55 PM,33.6,31.8,93,30.15,3.0,North,24.2,-,N/A,,Overcast,350,2013-12-29 19:55:00
2:15 PM,32.7,31.1,94,30.16,3.0,NNW,18.4,24.2,N/A,,Overcast,330,2013-12-29 20:15:00
2:35 PM,32.0,30.4,94,30.17,4.0,NNW,23.0,27.6,N/A,,Overcast,340,2013-12-29 20:35:00
2:55 PM,31.6,29.5,92,30.19,3.0,NNW,19.6,27.6,N/A,,Overcast,330,2013-12-29 20:55:00
3:15 PM,30.9,28.9,92,30.19,2.5,NNW,20.7,26.5,N/A,,Overcast,330,2013-12-29 21:15:00
3:35 PM,30.9,28.9,92,30.20,3.0,NNW,16.1,24.2,N/A,,Overcast,340,2013-12-29 21:35:00
3:55 PM,30.2,28.0,92,30.20,5.0,North,16.1,23.0,N/A,,Overcast,350,2013-12-29 21:55:00
4:15 PM,29.8,27.5,91,30.21,7.0,NNW,16.1,23.0,N/A,,Overcast,330,2013-12-29 22:15:00
4:35 PM,29.1,26.6,90,30.21,10.0,North,19.6,23.0,N/A,,Overcast,350,2013-12-29 22:35:00
4:55 PM,29.1,26.8,91,30.22,7.0,North,18.4,-,N/A,,Overcast,350,2013-12-29 22:55:00
5:15 PM,29.1,26.6,90,30.24,4.0,North,17.3,21.9,N/A,,Overcast,350,2013-12-29 23:15:00
5:35 PM,28.8,26.2,90,30.23,10.0,North,18.4,26.5,N/A,,Overcast,350,2013-12-29 23:35:00
5:55 PM,28.8,26.2,90,30.25,10.0,NNW,18.4,-,N/A,,Overcast,340,2013-12-29 23:55:00
6:15 PM,28.4,25.7,90,30.25,10.0,NNW,17.3,24.2,N/A,,Overcast,340,2013-12-30 00:15:00
6:35 PM,28.4,25.5,89,30.26,10.0,NNW,16.1,21.9,N/A,,Overcast,340,2013-12-30 00:35:00
6:55 PM,28.4,25.3,88,30.26,10.0,NNW,18.4,24.2,N/A,,Overcast,340,2013-12-30 00:55:00
7:15 PM,28.4,25.3,88,30.26,10.0,NNW,15.0,21.9,N/A,,Overcast,340,2013-12-30 01:15:00
7:35 PM,28.2,24.8,87,30.27,10.0,NNW,15.0,23.0,N/A,,Overcast,340,2013-12-30 01:35:00
7:55 PM,28.4,25.0,87,30.28,10.0,NNW,12.7,18.4,N/A,,Overcast,340,2013-12-30 01:55:00
8:15 PM,28.4,25.2,88,30.28,10.0,NNW,13.8,-,N/A,,Overcast,340,2013-12-30 02:15:00
8:35 PM,28.4,25.0,87,30.29,10.0,NNW,12.7,-,N/A,,Overcast,330,2013-12-30 02:35:00
8:55 PM,28.4,24.8,86,30.29,10.0,NNW,13.8,-,N/A,,Overcast,330,2013-12-30 02:55:00
9:15 PM,28.4,24.8,86,30.30,10.0,NNW,12.7,-,N/A,,Overcast,340,2013-12-30 03:15:00
9:35 PM,28.4,24.4,85,30.30,10.0,NNW,10.4,-,N/A,,Overcast,340,2013-12-30 03:35:00
9:55 PM,28.4,24.6,86,30.30,10.0,NNW,12.7,-,N/A,,Overcast,330,2013-12-30 03:55:00
10:15 PM,28.6,24.4,84,30.31,10.0,NNW,12.7,-,N/A,,Overcast,340,2013-12-30 04:15:00
10:35 PM,28.4,24.1,84,30.31,10.0,NNW,9.2,-,N/A,,Overcast,330,2013-12-30 04:35:00
10:55 PM,28.4,23.9,83,30.31,10.0,NNW,12.7,-,N/A,,Overcast,330,2013-12-30 04:55:00
11:15 PM,28.8,23.9,82,30.32,10.0,NNW,6.9,-,N/A,,Overcast,340,2013-12-30 05:15:00
11:35 PM,28.4,23.9,83,30.32,10.0,NNW,9.2,-,N/A,,Overcast,330,2013-12-30 05:35:00
11:55 PM,28.8,23.9,82,30.32,10.0,NW,10.4,-,N/A,,Overcast,320,2013-12-30 05:55:00